Date,TemperatureHighF,TemperatureAvgF,TemperatureLowF,DewpointHighF,DewpointAvgF,DewpointLowF,HumidityHigh,HumidityAvg,HumidityLow,PressureMaxIn,PressureMinIn,WindSpeedMaxMPH,WindSpeedAvgMPH,GustSpeedMaxMPH,PrecipitationSumIn
2013-7-1,86.0,69.3,59.0,61.0,57.7,55.0,86,69,42,0.00,40.00,7,6,11,0.00
2013-7-2,91.0,71.1,55.0,62.0,55.1,50.0,90,60,32,0.00,40.00,4,2,10,0.00
2013-7-3,91.0,77.7,63.0,65.0,58.5,56.0,81,54,32,0.00,40.00,6,4,10,0.00
2013-7-4,89.0,80.4,66.0,60.0,57.5,52.0,80,47,32,0.00,40.00,11,7,20,0.00
2013-7-5,86.0,71.3,59.0,57.0,54.3,46.0,90,57,32,0.00,40.00,11,7,21,0.00
2013-7-6,85.0,71.7,62.0,58.0,53.8,49.0,83,56,38,0.00,40.00,7,5,13,0.00
2013-7-7,89.0,69.9,51.0,59.0,52.3,44.0,98,59,31,0.00,40.00,15,6,25,0.00
2013-7-8,86.0,69.5,54.0,58.0,51.5,48.0,91,56,26,0.00,40.00,11,6,20,0.00
2013-7-9,90.0,73.7,49.0,56.0,48.0,41.0,84,46,19,0.00,40.00,6,3,10,0.00
2013-7-10,96.0,68.1,52.0,61.0,50.6,44.0,84,60,21,0.00,40.00,6,4,9,0.00
2013-7-11,81.0,69.3,60.0,57.0,49.6,39.0,91,54,30,0.00,40.00,16,7,24,0.00
2013-7-12,85.0,66.5,54.0,58.0,53.1,42.0,100,71,21,0.00,40.00,10,4,17,0.00
2013-7-13,86.0,73.5,61.0,51.0,44.1,31.0,70,38,13,0.00,40.00,11,7,20,0.00
2013-7-14,89.0,71.8,54.0,55.0,50.3,45.0,93,54,22,0.00,40.00,12,5,21,0.00
2013-7-15,89.0,69.2,53.0,58.0,52.1,44.0,89,58,30,0.00,40.00,11,4,28,0.00
2013-7-16,83.0,71.8,61.0,65.0,59.8,52.0,81,66,50,0.00,40.00,8,4,18,0.00
2013-7-17,89.0,74.2,60.0,61.0,58.3,52.0,99,63,32,0.00,40.00,9,5,15,0.00
2013-7-18,93.0,76.2,57.0,55.0,50.2,35.0,88,45,13,0.00,40.00,8,4,13,0.00
2013-7-19,95.0,69.9,47.0,48.0,40.7,34.0,73,41,11,0.00,40.00,5,2,9,0.00
2013-7-20,92.0,75.7,51.0,50.0,43.8,36.0,86,38,13,0.00,40.00,9,5,15,0.00
2013-7-21,89.0,79.2,52.0,41.0,35.3,29.0,62,22,11,0.00,40.00,9,7,14,0.00
2013-7-22,95.0,68.3,47.0,37.0,31.8,22.0,62,32,7,0.00,40.00,15,5,27,0.00
2013-7-23,89.0,75.4,56.0,43.0,33.6,25.0,43,24,10,0.00,40.00,4,3,9,0.00
2013-7-24,88.0,67.3,49.0,50.0,40.0,32.0,70,41,17,0.00,40.00,4,2,6,0.00
2013-7-25,90.0,75.9,60.0,52.0,45.2,38.0,73,40,16,0.00,40.00,10,4,15,0.00
2013-7-26,95.0,73.9,50.0,49.0,40.1,28.0,73,37,9,0.00,40.00,6,3,11,0.00
2013-7-27,85.0,70.8,61.0,56.0,51.2,45.0,85,54,25,0.00,40.00,19,8,31,0.00
2013-7-28,84.0,69.0,53.0,59.0,52.2,37.0,100,61,18,0.00,40.00,11,6,18,0.00
2013-7-29,85.0,72.5,53.0,55.0,48.2,38.0,86,46,24,0.00,40.00,15,7,23,0.00
2013-7-30,88.0,71.4,54.0,50.0,45.0,37.0,85,48,16,0.00,40.00,12,6,20,0.00
2013-7-31,94.0,74.9,54.0,53.0,45.2,35.0,89,43,12,0.00,40.00,15,6,32,0.00